Location: Unspecified
(0.0000°N, 0.0000°E)
Time: 19:20:26
(UTC+00:00)

deb Briz - Pass Details

Date: 17 February 2026
Orbit: 1858 x 2172 km, 64.9° (Epoch: 11 March)

Event Time Altitude Azimuth Distance (km) Brightness Sun altitude
Rises 04:04:09 0° 194° (SSW) 5,473 ? -31.7°
Reaches altitude 10° 04:07:30 10° 191° (S) 4,510 ? -30.9°
Maximum altitude 04:19:13 66° 110° (ESE) 2,269 ? -28.0°
Drops below altitude 10° 04:31:22 10° 30° (NNE) 4,680 ? -25.1°
Sets 04:34:53 0° 28° (NNE) 5,688 ? -24.2°
